Regional Weather Roundup
Issued by NWS

Home | Current Version | Previous Version | Text Only | Print | Product List | Glossary Off
Versions: 1 2 3 4 5 6 7 8 9 10 11 12 13 14 15 16 17 18 19 20 21 22 23 24 25 26 27 28 29 30 31 32 33 34 35 36 37 38 39 40 41 42 43 44 45 46 47 48 49 50

000
ASUS43 KMKX 302211
RWRWI

WISCONSIN REGIONAL WEATHER ROUNDUP
NATIONAL WEATHER SERVICE MILWAUKEE/SULLIVAN WI
500 PM CDT TUE JUN 30 2015

NOTE: "FAIR" INDICATES FEW OR NO CLOUDS BELOW 12,000 FEET WITH NO
SIGNIFICANT WEATHER AND/OR OBSTRUCTIONS TO VISIBILITY.

WIZ001-002-006>008-014>016-023>028-302300-
NORTHWEST WISCONSIN

CITY           SKY/WX    TMP DP  RH WIND       PRES   REMARKS
SUPERIOR ARPT  PTSUNNY   61  51  70 E7        29.97S
ASHLAND        MOSUNNY   62  51  67 NE10      29.98F
HAYWARD        PTSUNNY   65  50  58 VRB7      29.96F
SIREN          PTSUNNY   70  51  50 NE7       29.95S
CUMBERLAND     MOSUNNY   68  50  52 N9        29.94S
RICE LAKE      PTSUNNY   69  51  51 N6        29.95S
CHETEK         MOSUNNY   69  54  57 N9        29.94R
LADYSMITH      SUNNY     67  52  59 N10       29.95S
EAU CLAIRE     SUNNY     71  50  47 NE7       29.90S
MENOMONIE      MOSUNNY   73  51  46 NW9       29.92S
NEW RICHMOND   CLOUDY    70  53  56 NE5       29.94S
OSCEOLA        PTSUNNY   72  56  56 NW7       29.96S
$$

WIZ003>005-009-010-017-018-302300-
NORTH CENTRAL WISCONSIN

CITY           SKY/WX    TMP DP  RH WIND       PRES   REMARKS
MANITOWISH WTR MOSUNNY   60  48  66 N7        29.95F
ARBOR VITAE    SUNNY     62  49  63 N12       29.95S
WOODRUFF       SUNNY     62  49  63 N12       29.95S
RHINELANDER    MOSUNNY   63  49  60 VRB6      29.95R
EAGLE RIVER    CLOUDY    60  47  62 N9        29.95R
LAND O LAKES   PTSUNNY   58  47  67 N13       29.96S
PHILLIPS       PTSUNNY   63  50  61 N10       29.93F
TOMAHAWK       MOSUNNY   65  50  58 N9        29.94S
MEDFORD        PTSUNNY   65  52  63 N8        29.92F
MERRILL        PTSUNNY   65  53  64 NE12      29.93S
$$

WIZ029-030-035-036-043>047-302300-
CENTRAL WISCONSIN

CITY           SKY/WX    TMP DP  RH WIND       PRES   REMARKS
WAUSAU         CLOUDY    66  52  60 N12       29.90S
MOSINEE        NOT AVBL
MARSHFIELD     PTSUNNY   68  51  54 N9        29.91F
STEVENS POINT  PTSUNNY   66  53  62 NW10G17   29.90S
WAUPACA        MOSUNNY   74  56  52 NW8G17    29.87R
WAUTOMA        MOSUNNY   72  55  54 N10       29.86R
WISC RAPIDS    PTSUNNY   70  52  52 N14G20    29.90R
CAMP DOUGLAS   PTSUNNY   73  59  60 N13       29.87S
$$

WIZ011>013-019>022-031-037>040-048>050-302300-
NORTHEAST WISCONSIN

CITY           SKY/WX    TMP DP  RH WIND       PRES   REMARKS
ANTIGO         CLOUDY    64  53  68 N12G17    29.91S
SHAWANO        CLOUDY    69  55  60 N10       29.88R
OCONTO         CLOUDY    65  55  70 N13       29.86R
STURGEON BAY   CLOUDY    61  54  77 N10G18    29.87S
GREEN BAY      CLOUDY    70  57  63 N8        29.85R
MANITOWOC      CLOUDY    66  58  75 MISG      29.84S
APPLETON       PTSUNNY   68  55  64 N12G18    29.86S
CLINTONVILLE   CLOUDY    68  54  60 N7        29.86R
OSHKOSH        PTSUNNY   73  57  57 N10       29.85R
$$

WIZ032>034-041-042-053>061-302300-
SOUTHWEST WISCONSIN

CITY           SKY/WX    TMP DP  RH WIND       PRES   REMARKS
LA CROSSE      MOSUNNY   75  53  46 NW12      29.88S
SPARTA         MOSUNNY   72  52  49 NW9       29.89S
VIROQUA        MOSUNNY   73  57  56 N9        29.90R
BOSCOBEL       PTSUNNY   75  60  59 N7        29.87S
PRAIRIE DU CHI MOSUNNY   74  56  53 N8        29.87S
PLATTEVILLE    MOSUNNY   75  62  62 NW6       29.87S
$$

WIZ056-057-062-063-064-067-068-302300-
SOUTH CENTRAL WISCONSIN

CITY           SKY/WX    TMP DP  RH WIND       PRES   REMARKS
REEDSBURG      MOSUNNY   73  58  59 N12       29.86R
BARABOO/DELLS  MOSUNNY   73  55  51 NW10G17   29.86S
LONE ROCK      MOSUNNY   76  57  51 NW9       29.86S
MINERAL POINT  MOSUNNY   77  59  53 NW8       29.87S
MADISON        PTSUNNY   76  57  51 NW10      29.84S
MIDDLETON      PTSUNNY   75  55  50 N9        29.86R
WATERTOWN      PTSUNNY   74  58  56 N10       29.83S
MONROE         MOSUNNY   73  59  60 NW7       29.85F
JANESVILLE     PTSUNNY   77  59  53 NW5       29.84S
$$

WIZ051-052-058>065-066-070>072-302300-
SOUTHEAST WISCONSIN

CITY           SKY/WX    TMP DP  RH WIND       PRES   REMARKS
MILWAUKEE      MOSUNNY   63  56  78 NE13      29.85R
WAUKESHA       PTSUNNY   72  59  64 E8G16     29.84S
MILWAUKEE/TIMM MOSUNNY   66  55  68 NE7       29.85R
RACINE         PTSUNNY   63  56  78 N9        29.87R
BURLINGTON     MOSUNNY   69  60  75 E8        29.84R
KENOSHA        PTSUNNY   65  58  78 E9        29.85R
FOND DU LAC    MOSUNNY   70  59  68 NE12      29.85R
SHEBOYGAN      CLOUDY    63  57  81 NE9       29.84R
WEST BEND      PTSUNNY   70  55  60 N7        29.83S
JUNEAU         PTSUNNY   73  59  62 NW5       29.85R
$$

LSZ147-162-302300-
LAKE SUPERIOR

STATION/POSITION TIME  TEMP    WIND        PRES    WAVE
                       AIR SEA DIR/SP/G            HT/PER
                 (UTC) (F)     (DEG/KT/KT) (MB)    (FT/S)
W MID LAKE BUOY  2150   42 39  300/  6/  6 1016.0S   1/ 6
DEVILS ISLAND    2200   54     130/  7/  9 1015.8F
SAXON HARBOR     2100   54      50/  6/  9 1015.9
$$

LMZ867-665-643>646-302300-
LAKE MICHIGAN

STATION/POSITION TIME  TEMP    WIND        PRES    WAVE
                       AIR SEA DIR/SP/G            HT/PER
                 (UTC) (F)     (DEG/KT/KT) (MB)    (FT/S)
CHAMBERS ISLAND  2100   63     330/ 13/ 16 1011.2R
N MID LAKE BUOY  2150   50 42  320/ 14/ 16 1010.9R   2/ 4
NORTHPORT PIER   2100   59     350/ 19/ 21 1011.2R
SISTER BAY       2114   61     340/ 17/ 21   N/A
ALGOMA LAKESHORE 2110           70/ 11/ 12   N/A
KEWAUNEE LAKESHO 2100   59      40/  7/  9 1010.2R
SHEBOYGAN LAKESH 2200   56      50/  5/  6 1010.9R
PORT WASHINGTON  2140   60      50/  7/ 13 1011.2R
ATWATER BUOY     2100   58      30/  8/ 10 1012.1R
MILWAUKEE LAKESH 2100   58      30/ 10/ 12   N/A
KENOSHA   LAKESH 2200   58      30/  6/ 10 1011.2R
$$

TC  - TEMPERATURE IN CELSIUS
VSB - VISIBILITY IN STATUTE MILES
WCI - WIND CHILL INDEX
HX  - HEAT INDEX



USA.gov is the U.S. government's official web portal to all federal, state and local government web resources and services.